This is the latest recevied weather packets stored in our database for station/object NQ9F. If no packets are shown the sender has not sent any weather packets the latest 10 day(s).
| Time | Temp. | Humidity | Pressure | Rain* | Wind** | Luminosity | Snow |
|---|---|---|---|---|---|---|---|
| 1776949135 | 20° C | 94% | 1010.4 hPa | 0 mm | - | 38 W/m² | - |
| 1776948832 | 20° C | 94% | 1010.6 hPa | 0 mm | - | 18 W/m² | - |
| 1776948527 | 20° C | 95% | 1010.4 hPa | 0 mm | - | 19 W/m² | - |
| 1776948226 | 20° C | 95% | 1010.4 hPa | 0 mm | - | 13 W/m² | - |
| 1776947924 | 20° C | 95% | 1010.3 hPa | 0 mm | - | 15 W/m² | - |
| 1776947619 | 20° C | 94% | 1010.1 hPa | 0 mm | - | 14 W/m² | - |
| 1776947316 | 20° C | 94% | 1010.3 hPa | 0 mm | - | 9 W/m² | - |
| 1776947013 | 20° C | 94% | 1010.5 hPa | 0 mm | - | 6 W/m² | - |
| 1776946710 | 20° C | 94% | 1010.1 hPa | 0 mm | - | 5 W/m² | - |
| 1776946407 | 20° C | 94% | 1010 hPa | 0 mm | - | 5 W/m² | - |
| 1776946104 | 20° C | 94% | 1010.1 hPa | 0 mm | - | 3 W/m² | - |
| 1776945800 | 20° C | 94% | 1010.1 hPa | 0 mm | - | 2 W/m² | - |
| 1776945496 | 20° C | 93% | 1009.8 hPa | 0 mm | - | 1 W/m² | - |
| 1776945193 | 20° C | 93% | 1009.8 hPa | 0 mm | - | 1 W/m² | - |
| 1776944892 | 20° C | 93% | 1009.8 hPa | 0 mm | - | 0 W/m² | - |
| 1776944589 | 20° C | 93% | 1009.8 hPa | 0 mm | - | 0 W/m² | - |
| 1776944285 | 20° C | 93% | 1010 hPa | 0 mm | - | 0 W/m² | - |
| 1776943981 | 20° C | 93% | 1010.1 hPa | 0 mm | - | 0 W/m² | - |
| 1776943677 | 20° C | 93% | 1010 hPa | 0 mm | - | 0 W/m² | - |
| 1776943373 | 20° C | 93% | 1010 hPa | 0 mm | - | 0 W/m² | - |
| 1776943069 | 20° C | 93% | 1010.1 hPa | 0 mm | - | 0 W/m² | - |
| 1776942765 | 20° C | 93% | 1010.2 hPa | 0 mm | - | 0 W/m² | - |
| 1776942461 | 20° C | 93% | 1009.9 hPa | 0 mm | - | 0 W/m² | - |
| 1776942158 | 20° C | 93% | 1010.1 hPa | 0 mm | - | 0 W/m² | - |
| 1776941856 | 20.56° C | 93% | 1010.1 hPa | 0 mm | - | 0 W/m² | - |
* Rain latest hour (hover to see other rain measurements)
** Current wind speed in m/s (hover to see current wind gust speed)